This is the latest recevied weather packets stored in our database for station/object HP1CDW-11. If no packets are shown the sender has not sent any weather packets the latest 10 day(s).
| Time | Temp. | Humidity | Pressure | Rain* | Wind** | Luminosity | Snow |
|---|---|---|---|---|---|---|---|
| 1778090939 | 32.22° C | 50% | 1009.8 hPa | - | - | - | - |
| 1778090339 | 31.67° C | 47% | 1009.9 hPa | - | - | - | - |
| 1778089738 | 31.67° C | 54% | 1009.9 hPa | - | - | - | - |
| 1778089138 | 31.67° C | 54% | 1010.1 hPa | - | - | - | - |
| 1778088538 | 31.67° C | 54% | 1010.3 hPa | - | - | - | - |
| 1778087937 | 31.67° C | 53% | 1010.5 hPa | - | - | - | - |
| 1778087337 | 31.67° C | 53% | 1010.6 hPa | - | - | - | - |
| 1778086737 | 31.67° C | 56% | 1010.7 hPa | - | - | - | - |
| 1778086136 | 31.67° C | 56% | 1010.8 hPa | - | - | - | - |
| 1778085536 | 31.67° C | 56% | 1010.8 hPa | - | - | - | - |
| 1778084936 | 31.67° C | 56% | 1011 hPa | - | - | - | - |
| 1778084336 | 31.67° C | 56% | 1011 hPa | - | - | - | - |
| 1778083735 | 31.11° C | 55% | 1011.2 hPa | - | - | - | - |
| 1778083135 | 31.67° C | 57% | 1011.3 hPa | - | - | - | - |
| 1778082534 | 31.11° C | 57% | 1011.4 hPa | - | - | - | - |
| 1778081934 | 31.11° C | 57% | 1011.5 hPa | - | - | - | - |
| 1778081334 | 31.11° C | 57% | 1011.5 hPa | - | - | - | - |
| 1778080734 | 31.11° C | 58% | 1011.4 hPa | - | - | - | - |
| 1778080133 | 31.11° C | 58% | 1011.3 hPa | - | - | - | - |
| 1778079533 | 31.11° C | 58% | 1011.3 hPa | - | - | - | - |
| 1778078933 | 30.56° C | 59% | 1011.4 hPa | - | - | - | - |
| 1778078332 | 30.56° C | 59% | 1011.3 hPa | - | - | - | - |
| 1778077732 | 30.56° C | 59% | 1011.2 hPa | - | - | - | - |
| 1778077131 | 30.56° C | 59% | 1011.2 hPa | - | - | - | - |
| 1778076531 | 30.56° C | 59% | 1011.3 hPa | - | - | - | - |
* Rain since midnight (hover to see other rain measurements)
** Current wind speed in m/s (hover to see current wind gust speed)